Weather History for Knox, IN

Change the Weather History Date:

Saturday, November 26, 2011

  Actual Average (KVPZ) Record (KVPZ)
Temperature  
Mean Temperature 56 °F 36 °F  
Max Temperature 62 °F 43 °F 60 °F (2006)
Min Temperature 50 °F 29 °F 19 °F (2010)
Degree Days  
Heating Degree Days 9 29  
Month to date heating degree days 605  
Since 1 July heating degree days 1135  
Cooling Degree Days 0 0  
Month to date cooling degree days 0  
Year to date cooling degree days 713  
Growing Degree Days 6 (Base 50)    
Moisture  
Dew Point 46 °F    
Average Humidity 72    
Maximum Humidity 96    
Minimum Humidity 61    
Precipitation  
Precipitation 0.00 in 0.10 in 0.19 in (2009)
Month to date precipitation 2.92  
Year to date precipitation 34.92  
Sea Level Pressure  
Sea Level Pressure 29.90 in    
Wind  
Wind Speed 14 mph (SSW)    
Max Wind Speed 28 mph    
Max Gust Speed 31 mph    
Visibility 10 miles    
Events      
T = Trace of Precipitation, MM = Missing Value Source: NWS Daily Summary

Daily Weather History Graph

Daily Weather History Graph

Search for Another Location

Airport:

Trip Planner

Search our weather history database for the weather conditions in past years. The results will help you decide how hot, cold, wet, or windy it might be!

Date:

Astronomy

Nov. 26, 2011 Rise Set
Actual Time 6:47 AM CST 4:20 PM CST
Civil Twilight 6:17 AM CST 4:50 PM CST
Nautical Twilight 5:42 AM CST 5:24 PM CST
Astronomical Twilight 5:09 AM CST 5:57 PM CST
Moon 8:18 AM CST (11/26) 5:50 PM CST (11/26)
Length of Visible Light 10h 33m
Length of Day
9h 32m
Waxing Crescent, 3% of the Moon is Illuminated
Nov 26
Waxing Crescent
Dec 2
First Quarter
Dec 10
Full
Dec 17
Last Quarter
Dec 24
New

Hourly Weather History & Observations

Time (CST) Temp. Dew Point Humidity Pressure Visibility Wind Dir Wind Speed Gust Speed Precip Events Conditions
12:15 AM 51.1 °F 40.8 °F 68% 29.96 in 10.0 mi SSW 10.4 mph - N/A   Clear
12:55 AM 50.4 °F 40.3 °F 68% 29.96 in 10.0 mi SSW 11.5 mph - N/A   Clear
1:15 AM 50.4 °F 40.1 °F 68% 29.96 in 10.0 mi SSW 10.4 mph - N/A   Clear
1:35 AM 50.7 °F 40.1 °F 67% 29.96 in 10.0 mi SSW 10.4 mph 16.1 mph N/A   Clear
1:55 AM 51.6 °F 39.7 °F 64% 29.96 in 10.0 mi SSW 13.8 mph 17.3 mph N/A   Clear
2:15 AM 51.8 °F 39.4 °F 63% 29.96 in 10.0 mi SSW 13.8 mph 18.4 mph N/A   Clear
2:35 AM 52.0 °F 39.2 °F 62% 29.96 in 10.0 mi SSW 15.0 mph 21.9 mph N/A   Clear
2:55 AM 52.2 °F 39.0 °F 61% 29.96 in 10.0 mi SSW 13.8 mph - N/A   Clear
3:15 AM 51.8 °F 38.8 °F 61% 29.95 in 10.0 mi SSW 13.8 mph 20.7 mph N/A   Clear
3:35 AM 51.6 °F 38.8 °F 62% 29.95 in 10.0 mi SSW 15.0 mph - N/A   Clear
3:55 AM 51.8 °F 39.0 °F 62% 29.95 in 10.0 mi SSW 12.7 mph - N/A   Clear
4:15 AM 51.8 °F 39.2 °F 62% 29.95 in 10.0 mi SSW 9.2 mph - N/A   Clear
4:35 AM 50.9 °F 39.2 °F 64% 29.95 in 10.0 mi SSW 10.4 mph - N/A   Clear
4:55 AM 50.5 °F 39.2 °F 65% 29.95 in 10.0 mi South 11.5 mph - N/A   Clear
5:15 AM 50.0 °F 39.2 °F 66% 29.95 in 10.0 mi SSW 10.4 mph - N/A   Clear
5:35 AM 50.2 °F 39.4 °F 66% 29.95 in 10.0 mi South 11.5 mph - N/A   Clear
6:15 AM 50.2 °F 40.1 °F 68% 29.95 in 10.0 mi South 13.8 mph 18.4 mph N/A   Clear
6:35 AM 50.5 °F 40.5 °F 68% 29.94 in 10.0 mi South 13.8 mph - N/A   Scattered Clouds
6:55 AM 50.7 °F 41.0 °F 69% 29.93 in 10.0 mi South 13.8 mph 20.7 mph N/A   Scattered Clouds
7:15 AM 50.9 °F 41.2 °F 69% 29.94 in 10.0 mi South 17.3 mph 21.9 mph N/A   Clear
7:35 AM 51.3 °F 41.9 °F 70% 29.94 in 10.0 mi South 12.7 mph 19.6 mph N/A   Mostly Cloudy
7:55 AM 52.0 °F 42.3 °F 69% 29.95 in 10.0 mi South 13.8 mph 19.6 mph N/A   Overcast
8:15 AM 51.8 °F 42.3 °F 70% 29.95 in 10.0 mi South 15.0 mph 20.7 mph N/A   Overcast
8:35 AM 52.3 °F 43.2 °F 71% 29.95 in 10.0 mi South 13.8 mph 20.7 mph N/A   Overcast
8:55 AM 53.6 °F 44.2 °F 71% 29.95 in 10.0 mi South 16.1 mph 24.2 mph N/A   Overcast
9:15 AM 55.0 °F 45.3 °F 70% 29.95 in 10.0 mi South 16.1 mph 25.3 mph N/A   Overcast
9:35 AM 55.8 °F 46.0 °F 70% 29.94 in 10.0 mi SSW 17.3 mph 24.2 mph N/A   Mostly Cloudy
9:55 AM 57.0 °F 46.6 °F 68% 29.93 in 10.0 mi SSW 18.4 mph 27.6 mph N/A   Mostly Cloudy
10:15 AM 57.6 °F 47.3 °F 69% 29.93 in 10.0 mi South 18.4 mph 28.8 mph N/A   Mostly Cloudy
10:35 AM 59.4 °F 48.2 °F 67% 29.92 in 10.0 mi SSW 19.6 mph 26.5 mph N/A   Scattered Clouds
10:55 AM 60.1 °F 48.7 °F 66% 29.91 in 10.0 mi South 21.9 mph 28.8 mph N/A   Mostly Cloudy
11:35 AM 60.4 °F 49.3 °F 67% 29.89 in 10.0 mi South 21.9 mph 28.8 mph N/A   Overcast
11:55 AM 60.3 °F 49.5 °F 68% 29.89 in 10.0 mi SSW 16.1 mph 25.3 mph N/A   Overcast
12:15 PM 60.4 °F 49.6 °F 68% 29.88 in 10.0 mi SSW 19.6 mph 27.6 mph N/A   Overcast
12:35 PM 60.3 °F 49.6 °F 68% 29.88 in 10.0 mi SSW 19.6 mph 25.3 mph N/A   Overcast
12:55 PM 60.6 °F 50.0 °F 68% 29.87 in 10.0 mi South 23.0 mph 26.5 mph N/A   Overcast
1:15 PM 62.1 °F 50.5 °F 66% 29.86 in 10.0 mi SSW 18.4 mph 28.8 mph N/A   Overcast
1:35 PM 62.8 °F 51.1 °F 66% 29.86 in 10.0 mi SSW 23.0 mph 29.9 mph N/A   Overcast
1:55 PM 62.2 °F 50.9 °F 66% 29.85 in 10.0 mi South 15.0 mph 21.9 mph N/A   Overcast
2:15 PM 61.9 °F 50.9 °F 67% 29.84 in 10.0 mi South 18.4 mph 23.0 mph N/A   Overcast
2:35 PM 61.9 °F 50.9 °F 67% 29.84 in 10.0 mi South 17.3 mph - N/A   Overcast
2:55 PM 61.7 °F 51.1 °F 68% 29.85 in 10.0 mi SSW 27.6 mph 31.1 mph N/A   Overcast
3:15 PM 62.4 °F 50.9 °F 66% 29.84 in 10.0 mi SSW 18.4 mph 29.9 mph N/A   Overcast
3:55 PM 60.6 °F 51.1 °F 71% 29.84 in 10.0 mi South 18.4 mph 26.5 mph N/A   Overcast
4:15 PM 59.7 °F 51.8 °F 75% 29.83 in 10.0 mi South 18.4 mph 24.2 mph N/A   Overcast
4:55 PM 59.4 °F 52.0 °F 77% 29.82 in 10.0 mi South 16.1 mph - N/A   Overcast
5:15 PM 59.2 °F 52.3 °F 78% 29.82 in 10.0 mi South 20.7 mph 29.9 mph N/A   Overcast
5:35 PM 59.0 °F 53.4 °F 82% 29.82 in 10.0 mi South 19.6 mph 26.5 mph N/A   Overcast
5:55 PM 58.8 °F 53.2 °F 82% 29.82 in 10.0 mi South 20.7 mph 25.3 mph N/A   Overcast
6:15 PM 58.1 °F 53.2 °F 84% 29.82 in 7.0 mi South 13.8 mph - N/A   Overcast
6:35 PM 57.0 °F 53.8 °F 89% 29.82 in 5.0 mi South 11.5 mph 16.1 mph N/A   Overcast
6:55 PM 56.3 °F 53.8 °F 91% 29.82 in 10.0 mi South 12.7 mph - N/A   Overcast
7:15 PM 56.3 °F 53.6 °F 91% 29.82 in 7.0 mi South 11.5 mph - N/A   Overcast
7:35 PM 55.8 °F 53.6 °F 92% 29.82 in 7.0 mi South 12.7 mph 17.3 mph N/A   Overcast
7:55 PM 55.4 °F 53.6 °F 94% 29.81 in 10.0 mi South 13.8 mph 20.7 mph N/A   Overcast
8:15 PM 54.9 °F 53.8 °F 96% 29.80 in 7.0 mi South 19.6 mph 24.2 mph N/A   Overcast
8:55 PM 54.9 °F 53.8 °F 96% 29.79 in 7.0 mi South 17.3 mph - N/A   Overcast
9:15 PM 54.7 °F 53.6 °F 96% 29.78 in 10.0 mi South 16.1 mph - N/A   Overcast
9:35 PM 54.9 °F 53.8 °F 96% 29.78 in 10.0 mi South 16.1 mph 21.9 mph N/A   Overcast
9:55 PM 55.0 °F 53.8 °F 96% 29.78 in 10.0 mi South 15.0 mph 24.2 mph N/A   Overcast
10:15 PM 55.4 °F 54.0 °F 95% 29.77 in 10.0 mi South 15.0 mph 19.6 mph N/A   Overcast
10:35 PM 55.8 °F 54.1 °F 94% 29.76 in 10.0 mi South 13.8 mph 20.7 mph N/A   Overcast
10:55 PM 56.1 °F 54.5 °F 94% 29.75 in 10.0 mi South 13.8 mph 21.9 mph N/A   Overcast
11:35 PM 56.3 °F 54.7 °F 94% 29.74 in 10.0 mi South 16.1 mph - N/A   Overcast
11:55 PM 56.1 °F 54.5 °F 94% 29.74 in 10.0 mi South 12.7 mph 18.4 mph N/A   Overcast